Home   Weather   Santander   Past weeks

Flag for Spain Past Weather in Santander, Spain — Yesterday and Last 2 Weeks

Now
46 °F

Overcast.


Feels Like: 43 °F
Forecast: 38 / 41 °F
Wind: 7 mph from East

Location: Santander / Parayas

Current Time: Jan 17, 2017 at 6:12:31 am

Latest Report: Jan 17, 2017 at 5:30 am


Visibility: N/A

Pressure: 30.33 "Hg

Humidity: 87%

Dew Point: 43 °F

Location of SantanderLocation

Past Weather in Santander — Graph

°F

Santander Temperature Yesterday

Maximum temperature yesterday: 55 °F (at 2:30 pm)
Minimum temperature yesterday: 50 °F (at 12:00 am)
Average temperature yesterday: 52 °F

High & Low Weather Summary for the Past Weeks

 TemperatureHumidityPressure
High57 °F (Jan 12, 2:30 pm)100% (Jan 3, 11:30 pm)30.54 "Hg (Jan 3, 11:30 pm)
Low28 °F (Jan 7, 6:30 am)41% (Jan 8, 2:30 pm)30.01 "Hg (Jan 2, 5:00 am)
Average47 °F80%30.35 "Hg
* Reported Jan 2 5:00 am — Jan 17 5:00 am, Santander, Weather by CustomWeather, © 2017

Note: Actual official high and low records may vary slightly from our data, if they occured in-between our weather recording intervals... More about our weather records

Advertising

Santander Weather History for the Previous 24 Hours

Scroll right to see more
 ConditionsComfort  
Time TempWeatherWind HumidityBarometerVisibility
5:00 am
Tue, Jan 17
46 °FOvercast.7 mph87%30.30 "HgN/A
4:30 am46 °FLight rain. Partly cloudy.14 mph93%30.30 "Hg3 mi
4:00 am48 °FRain. Partly cloudy.15 mph94%30.30 "Hg1 mi
3:30 am50 °FLight rain. Passing clouds.13 mph100%30.27 "HgN/A
3:00 am52 °FLight rain. Partly cloudy.10 mph94%30.27 "Hg2 mi
2:30 am52 °FHeavy rain. Dense fog.14 mph94%30.30 "Hg1 mi
2:00 am52 °FLight rain. Overcast.10 mph94%30.30 "Hg6 mi
1:30 am52 °FLight rain. Partly cloudy.13 mph94%30.30 "Hg4 mi
1:00 am52 °FLight rain. Partly cloudy.10 mph94%30.30 "Hg2 mi
12:30 am52 °FPartly cloudy.13 mph94%30.33 "Hg4 mi
12:00 am52 °FOvercast.14 mph88%30.33 "HgN/A
11:30 pm
Mon, Jan 16
54 °FPartly cloudy.10 mph88%30.33 "Hg4 mi
11:00 pm52 °FLight rain. Overcast.10 mph94%30.33 "Hg4 mi
10:30 pm52 °FRain. Overcast.9 mph94%30.33 "Hg2 mi
10:00 pm52 °FLight rain. Overcast.10 mph94%30.33 "Hg3 mi
9:30 pm52 °FLight rain. Overcast.13 mph94%30.33 "Hg3 mi
9:00 pm52 °FLight rain. Overcast.12 mph88%30.33 "Hg5 mi
8:30 pm52 °FRain. Mostly cloudy.12 mph94%30.33 "Hg2 mi
8:00 pm52 °FRain. Overcast.14 mph88%30.33 "Hg2 mi
7:30 pm52 °FRain. Overcast.10 mph94%30.33 "Hg2 mi
7:00 pm52 °FLight rain. Mostly cloudy.13 mph88%30.33 "Hg5 mi
6:35 pm52 °FLight rain. Partly cloudy.9 mph94%30.33 "Hg5 mi
6:00 pm54 °FLight rain. Mostly cloudy.12 mph82%30.33 "HgN/A
5:30 pm54 °FMostly cloudy.10 mph82%30.33 "HgN/A
5:00 pm52 °FLight rain. Cloudy.10 mph88%30.33 "HgN/A
4:30 pm54 °FLight rain. Cloudy.12 mph82%30.36 "Hg4 mi
4:00 pm54 °FLight rain. Partly sunny.10 mph82%30.36 "Hg4 mi
3:30 pm54 °FPartly sunny.12 mph77%30.36 "HgN/A
3:00 pm55 °FBroken clouds.14 mph67%30.36 "HgN/A
2:30 pm55 °FBroken clouds.10 mph72%30.36 "HgN/A
2:00 pm54 °FPartly sunny.10 mph77%30.36 "HgN/A
1:30 pm54 °FBroken clouds.10 mph82%30.39 "HgN/A
1:00 pm54 °FBroken clouds.12 mph88%30.39 "HgN/A
12:30 pm54 °FBroken clouds.10 mph82%30.39 "HgN/A
12:00 pm54 °FBroken clouds.9 mph82%30.42 "HgN/A
11:30 am52 °FPartly sunny.12 mph82%30.42 "HgN/A
11:00 am54 °FLight rain. Partly sunny.10 mph82%30.42 "Hg4 mi
10:30 am52 °FLight rain. Partly sunny.10 mph88%30.42 "HgN/A
10:00 am52 °FPartly sunny.12 mph88%30.39 "HgN/A
9:30 am52 °FPartly sunny.10 mph88%30.39 "HgN/A
9:00 am52 °FLight rain. Partly sunny.12 mph88%30.39 "Hg4 mi
8:30 am52 °FLight rain. Mostly cloudy.15 mph94%30.39 "Hg5 mi
8:00 am50 °FLight rain. Mostly cloudy.18 mph94%30.39 "Hg3 mi
7:30 am52 °FLight rain. Mostly cloudy.17 mph88%30.39 "Hg5 mi
7:00 am52 °FLight rain. Mostly cloudy.20 mph88%30.39 "Hg5 mi
6:30 am50 °FMostly cloudy.16 mph94%30.39 "HgN/A
6:00 am50 °FLight rain. Partly cloudy.15 mph94%30.39 "Hg5 mi
Weather by CustomWeather, © 2017

See weather overviewHow to use our weather pages